ECMWFNIL_850_thetae_132.txt.gz
Theta_e
298 298 298 298 298 297 297 297 297 297 297 296 296 296 295 295 295 295 295 294 294 294 294 294 293 293 293 292 292 292 292 292 291 291 291 291 291 290 290 290 290 289
296 296 296 296 296 296 295 295 295 295 295 295 295 294 294 294 294 294 294 293 293 293 293 293 293 292 292 292 292 291 291 291 291 290 290 290 290 290 290 290 289 289
294 294 294 294 294 294 294 294 294 294 294 294 293 293 293 293 293 293 293 292 292 292 292 292 292 292 292 291 291 291 291 290 290 290 290 290 289 289 289 289 289 289
292 292 292 292 293 293 293 293 293 293 293 293 293 293 293 293 293 292 292 292 292 292 292 292 292 291 291 291 291 290 290 290 290 289 289 289 289 289 289 288 288 288
291 291 291 291 291 291 292 292 292 292 292 292 293 293 293 293 293 293 292 292 292 292 292 292 291 291 291 291 290 290 290 290 290 289 288 289 289 288 288 288 288 288
291 291 291 291 291 291 291 291 291 291 291 291 292 292 292 292 292 292 292 292 292 292 292 291 291 291 291 291 290 290 290 290 290 289 289 289 288 288 288 287 287 287
291 291 291 291 291 291 291 291 291 291 291 291 291 291 291 291 291 292 292 292 292 292 292 291 291 291 291 290 290 290 290 290 290 289 288 289 288 288 288 287 287 287
290 290 290 290 290 290 290 290 290 290 290 290 290 290 290 290 290 290 290 291 291 292 291 291 291 291 290 290 290 290 290 290 289 289 289 289 288 288 288 287 287 287
290 290 290 290 290 290 290 289 289 289 289 289 289 289 288 289 289 289 289 290 290 290 291 290 290 290 289 289 289 289 289 289 289 289 289 289 288 288 288 287 287 287
288 289 289 289 289 289 289 289 289 288 288 288 288 288 287 287 287 287 288 288 289 289 289 289 289 289 289 288 288 288 288 288 288 288 288 288 288 288 288 287 286 286
287 287 287 287 287 288 288 288 288 288 288 288 288 288 287 287 287 287 287 287 287 287 288 288 288 288 288 288 288 288 288 288 288 287 287 287 287 287 287 287 286 286
285 285 285 285 285 285 286 286 286 286 287 287 287 287 287 287 287 287 287 287 287 286 286 287 287 287 287 287 287 287 287 287 287 286 287 287 287 287 287 286 286 286
283 283 284 284 284 284 284 284 284 284 285 285 285 286 286 286 287 287 287 287 287 286 286 286 286 286 286 286 287 286 286 286 286 286 286 286 286 286 286 286 285 285
282 282 282 282 282 282 282 283 283 283 283 283 284 284 284 285 285 285 285 286 286 286 286 286 286 286 286 286 286 286 286 285 285 285 285 285 285 285 285 285 285 285
281 281 281 281 281 281 281 281 282 282 282 282 282 282 282 283 283 283 283 284 284 284 285 285 285 285 285 285 285 285 285 285 285 285 284 284 284 284 284 284 284 284
279 280 280 280 280 280 280 281 281 281 281 281 281 281 281 281 281 282 282 282 282 283 283 283 284 284 284 284 284 284 284 284 284 284 284 284 283 283 283 283 283 283
279 279 279 279 279 279 280 280 280 280 280 280 280 280 280 280 280 281 281 281 281 281 281 282 282 282 283 283 283 283 283 283 283 283 283 283 283 283 283 283 283 282
278 279 279 279 279 279 279 279 279 279 279 279 280 279 279 279 279 279 280 280 280 280 280 280 281 281 281 281 281 281 282 282 282 282 282 282 282 282 282 282 282 282
278 278 278 278 278 278 278 278 278 278 278 278 278 278 278 278 278 278 278 278 279 279 279 279 279 279 280 280 280 280 280 280 280 280 280 280 280 280 281 281 281 281
277 277 277 277 277 277 277 277 277 277 276 276 276 276 276 277 277 277 277 277 277 277 278 278 278 278 278 278 278 278 278 278 279 279 279 279 279 279 279 279 280 280
276 276 276 275 275 275 275 275 275 275 275 275 275 275 275 275 275 275 275 276 276 276 276 276 277 277 277 277 277 277 276 277 277 278 278 278 278 278 278 279 279 279
274 273 273 273 273 273 273 273 273 273 273 273 274 274 274 274 274 274 274 274 275 275 275 275 275 276 276 276 276 275 275 276 276 277 277 277 277 277 278 278 278 278
272 271 271 271 271 272 272 272 272 272 272 272 272 272 273 273 273 273 273 273 273 274 274 274 274 274 274 275 274 274 274 274 275 275 275 276 276 276 276 276 277 277
270 270 270 270 270 271 271 271 271 271 271 271 271 271 271 272 272 272 272 272 272 273 273 273 273 273 273 273 273 273 273 273 274 274 274 274 274 275 275 275 275 275
269 269 269 270 270 270 270 270 270 270 270 270 270 270 270 270 271 271 271 271 272 272 272 272 272 272 273 273 273 273 273 273 273 273 273 273 273 273 274 274 274 274
269 269 269 269 269 269 269 269 269 269 269 269 269 270 270 270 270 270 270 270 270 270 270 270 271 271 272 272 272 272 272 272 272 272 272 272 272 272 272 273 273 273

ECMWFNIL_850_thetae_135.txt.gz
Theta_e
294 294 295 295 295 295 295 295 295 294 294 294 294 294 294 294 294 294 294 293 293 293 293 293 293 293 293 292 292 292 292 292 292 292 291 291 291 291 291 291 291 291
291 291 292 292 293 293 293 294 294 294 293 293 293 292 292 292 292 292 292 292 292 292 292 292 292 292 292 292 292 291 291 291 291 291 291 291 291 291 291 290 290 290
290 290 290 290 291 291 291 291 292 292 292 292 292 292 292 292 291 291 291 291 291 291 292 292 292 292 291 291 291 291 291 291 291 291 290 290 290 290 290 290 290 290
291 291 290 290 290 290 290 290 290 290 291 291 291 291 291 291 291 291 291 291 291 291 291 291 291 291 291 291 290 290 291 290 290 290 290 290 290 289 290 289 289 289
290 290 290 290 290 290 290 290 290 290 290 290 290 290 290 290 290 290 290 290 290 290 290 291 291 291 290 290 290 290 290 290 290 289 289 290 289 289 289 289 289 289
289 289 289 289 289 289 290 290 290 290 289 289 289 289 289 289 289 289 289 289 289 289 290 290 290 290 290 290 289 290 290 289 289 288 288 289 289 289 289 288 288 288
287 288 288 288 288 288 288 288 289 289 289 289 289 289 289 289 288 288 288 288 288 288 289 289 289 290 290 290 289 289 289 289 288 288 288 288 288 288 288 288 288 288
286 286 286 286 286 287 287 287 287 288 288 288 288 288 288 288 288 288 288 288 288 288 288 288 288 289 289 289 289 289 289 288 288 287 287 288 287 287 288 287 287 288
284 285 285 285 285 285 285 286 286 286 287 287 287 287 288 288 288 288 288 288 288 288 288 288 288 288 288 288 288 289 288 288 287 287 287 287 287 287 287 287 286 287
283 283 284 284 284 284 284 285 285 285 285 285 285 286 286 286 287 287 287 287 287 288 288 288 287 287 287 287 287 288 288 288 288 287 287 287 287 286 286 286 286 286
282 282 282 282 283 283 283 283 283 283 283 283 284 284 284 285 285 285 285 286 286 286 286 287 287 287 286 286 286 286 287 287 287 287 287 287 287 287 286 286 285 286
281 281 281 281 281 281 281 281 282 282 282 282 282 283 283 283 283 283 283 284 284 284 284 285 285 285 285 285 285 285 285 285 286 286 286 287 287 287 286 286 285 285
280 280 280 280 280 280 280 280 281 281 281 281 281 281 281 281 282 282 282 282 282 283 283 283 283 284 284 284 284 284 284 284 285 285 285 285 286 286 286 286 285 285
279 279 279 279 279 279 280 280 280 280 280 280 280 280 280 280 280 281 281 281 281 281 281 282 282 282 282 283 283 283 284 284 284 284 284 284 285 285 285 285 285 285
277 278 278 278 278 278 278 279 279 279 279 279 279 279 279 279 279 279 280 280 280 280 280 280 281 281 281 281 281 282 282 282 283 283 283 284 284 284 284 284 284 284
276 277 277 277 277 277 277 277 278 278 278 278 278 278 278 278 278 278 278 279 279 279 279 279 280 280 280 280 280 280 280 281 281 282 282 282 282 283 283 283 283 283
276 276 276 276 276 276 276 276 276 276 276 276 276 276 277 277 277 277 277 277 278 278 278 278 278 278 279 279 279 279 279 279 280 280 280 281 281 281 281 282 282 282
275 275 275 275 275 274 274 274 274 274 274 275 275 275 275 275 275 275 275 276 276 276 276 276 276 277 277 277 277 277 278 278 278 279 279 279 279 280 280 280 281 281
274 274 274 274 274 274 273 273 273 273 273 273 273 273 273 273 274 274 274 274 274 274 275 275 275 275 275 276 276 276 276 276 277 277 277 278 278 278 279 279 279 280
274 274 273 273 273 273 272 272 272 272 272 272 272 272 272 272 272 273 273 273 273 274 274 274 274 274 274 275 275 275 275 275 275 276 276 277 277 277 277 278 278 278
273 273 273 272 272 272 272 271 271 271 271 271 271 271 271 271 271 271 272 272 272 273 273 273 273 273 274 274 274 274 274 274 274 275 275 275 276 276 276 276 276 277
272 272 272 271 271 271 271 271 271 271 271 271 271 271 271 270 271 271 271 271 271 271 272 272 272 273 273 273 273 273 273 273 274 274 274 274 274 274 275 275 275 275
271 271 270 270 270 270 270 270 270 270 270 270 270 270 270 270 270 270 270 270 270 270 270 271 271 271 271 272 272 272 272 272 272 273 273 273 273 274 274 274 274 274
270 270 270 269 269 269 269 269 269 269 269 269 269 269 270 270 270 270 269 269 269 269 269 270 270 270 270 270 270 270 270 270 270 271 271 272 272 272 272 272 273 273
269 269 269 269 269 269 269 268 269 269 269 269 269 269 269 269 269 269 269 269 269 269 269 269 269 269 269 269 269 269 269 269 269 269 269 269 269 269 270 270 271 272
269 269 268 268 268 268 268 268 268 268 268 269 269 269 268 268 268 269 269 269 268 268 268 268 268 268 268 268 268 268 268 268 268 268 268 268 268 268 268 269 270 270

ECMWFNIL_850_thetae_138.txt.gz
Theta_e
290 290 290 290 291 291 292 292 293 293 294 294 294 295 295 295 296 296 296 295 295 295 294 294 293 293 292 292 292 291 291 291 291 291 291 291 292 292 292 292 292 292
290 290 290 289 289 289 289 289 290 290 290 291 291 292 292 293 293 293 294 294 294 294 294 294 293 293 292 292 292 291 291 291 290 290 290 291 291 291 291 291 291 291
288 289 289 289 289 289 289 289 289 288 288 289 289 289 290 290 291 291 291 292 292 292 292 292 293 292 292 292 292 291 291 291 290 290 290 290 290 290 290 290 290 290
287 287 287 288 288 288 289 289 289 289 288 288 288 288 288 289 289 289 289 290 290 290 290 291 291 291 292 292 291 291 291 291 290 290 289 289 289 289 289 289 289 289
285 285 286 286 286 287 287 288 288 288 288 288 288 288 288 288 288 288 288 289 289 289 289 289 289 290 290 290 291 291 291 291 291 290 290 289 289 289 288 288 288 288
283 284 284 285 285 285 286 286 286 287 287 287 288 288 288 288 288 288 288 288 288 288 288 288 288 288 289 289 289 290 290 290 290 290 290 290 289 288 288 288 288 288
282 282 283 283 284 284 284 285 285 285 286 286 286 287 287 287 287 288 288 288 288 288 288 288 288 287 288 288 288 288 289 289 289 289 289 289 289 288 288 288 288 288
281 281 281 282 282 283 283 283 284 284 285 285 285 285 286 286 286 286 287 287 287 287 287 287 287 287 287 287 287 287 287 288 288 288 288 289 288 288 288 287 287 288
280 280 280 280 281 281 282 282 282 283 283 284 284 284 284 285 285 285 285 285 285 286 286 286 286 287 287 287 287 287 286 287 287 287 287 287 288 288 288 287 287 287
279 279 279 279 280 280 280 281 281 281 282 282 283 283 283 283 284 284 284 284 284 284 285 285 285 285 285 286 286 286 286 286 286 286 286 287 287 287 287 287 286 287
278 278 278 279 279 279 279 279 280 280 280 281 281 281 282 282 282 283 283 283 283 283 283 284 284 284 284 284 284 285 285 285 285 285 285 286 286 286 286 286 286 286
277 277 277 278 278 278 278 278 279 279 279 279 280 280 280 280 281 281 281 281 282 282 282 282 282 282 283 283 283 283 283 284 284 284 285 285 285 285 285 285 285 285
276 276 277 277 277 277 277 277 277 278 278 278 278 279 279 279 279 279 279 279 280 280 280 280 281 281 281 281 282 282 282 283 283 283 284 284 284 284 284 284 284 284
275 276 276 276 276 276 276 276 276 277 277 277 277 277 277 277 278 278 278 278 278 278 278 279 279 279 280 280 280 280 281 281 281 282 282 283 283 283 283 283 283 284
275 275 275 275 275 275 275 275 276 276 276 276 276 276 276 276 276 276 277 277 277 277 277 277 277 278 278 278 278 278 278 279 279 280 280 281 281 281 282 282 282 283
274 274 275 275 275 275 274 274 274 275 275 275 275 275 275 274 275 275 275 275 275 276 276 276 276 276 277 277 277 277 277 277 277 278 278 278 278 279 279 280 280 281
273 274 274 274 274 274 274 273 273 273 273 273 274 273 274 273 274 274 274 274 274 274 275 275 275 275 275 276 276 276 276 276 277 277 277 277 277 277 277 278 278 279
273 273 273 273 273 273 273 273 272 272 272 272 272 272 272 272 272 272 272 273 273 273 273 274 274 274 275 275 275 275 275 275 276 276 276 276 276 276 277 277 277 277
272 273 273 273 272 272 272 271 271 271 271 271 271 271 271 271 271 271 271 271 272 272 272 273 273 273 274 274 274 275 275 274 274 274 274 275 275 275 276 276 276 276
272 272 272 272 272 271 271 270 270 270 270 270 270 270 270 270 270 270 270 270 271 271 271 271 272 272 272 273 273 274 274 273 273 273 273 274 274 274 274 275 275 275
271 272 272 271 271 270 270 270 270 270 270 270 270 270 270 270 270 270 270 270 270 270 270 270 270 270 271 271 271 272 272 272 272 272 273 273 273 273 273 273 273 273
271 271 271 271 270 270 270 270 269 269 269 269 269 269 269 269 269 269 269 270 270 270 270 270 270 270 270 270 270 270 270 270 270 270 271 272 272 271 271 271 272 272
271 271 271 270 270 269 269 269 269 269 268 269 269 269 269 269 269 269 269 269 269 269 270 270 270 270 269 269 269 269 269 269 269 269 269 270 270 270 269 270 270 271
271 270 270 269 269 269 268 268 268 268 268 268 269 269 269 269 269 269 268 269 269 269 269 269 269 269 269 269 269 269 268 268 268 268 268 269 269 268 268 269 270 270
271 270 269 269 268 268 268 268 268 268 268 268 268 268 268 268 268 268 268 268 268 268 268 268 268 268 269 268 268 268 268 267 267 267 267 268 268 267 268 268 269 269
270 269 269 268 268 268 267 267 268 268 268 268 268 267 268 268 268 268 268 268 268 268 268 268 268 268 268 268 268 268 268 267 267 267 267 267 267 267 267 267 268 268

ECMWFNIL_850_thetae_144.txt.gz
Theta_e
282 282 282 283 283 284 284 285 286 286 286 287 287 287 288 288 288 289 289 290 290 291 290 290 290 290 290 290 291 291 292 293 293 293 293 293 294 294 294 294 294 294
281 281 281 281 282 282 283 283 284 284 285 286 286 287 287 287 287 287 287 288 288 289 290 290 290 289 289 289 289 290 290 290 291 291 291 291 291 291 292 292 292 292
279 280 280 280 281 281 281 282 282 282 283 284 284 285 286 286 287 287 287 287 287 287 288 288 289 289 289 289 289 289 289 289 289 289 290 290 290 290 290 290 290 290
278 278 278 279 279 280 280 281 281 281 281 282 283 284 284 285 285 286 286 286 287 287 286 286 287 287 288 288 288 288 289 289 289 289 289 289 289 289 289 289 289 289
277 277 277 278 278 279 279 279 280 280 280 281 281 281 282 283 284 284 285 286 286 286 286 286 286 286 286 286 287 287 287 288 288 288 289 289 289 289 289 289 289 289
277 277 277 277 277 278 278 278 278 279 279 279 280 280 280 281 282 282 283 284 285 285 285 285 286 286 286 286 286 286 286 287 287 287 287 287 288 288 288 288 288 288
277 277 277 277 277 277 278 278 277 278 278 278 279 279 279 280 280 281 281 282 283 283 284 284 285 285 285 285 285 285 285 286 286 286 286 286 286 287 287 287 287 288
277 277 277 277 277 277 277 277 277 277 277 277 277 278 279 279 279 279 280 280 281 281 282 282 283 284 284 285 285 285 285 285 285 285 285 286 286 286 286 286 286 286
277 277 276 276 276 276 276 276 276 276 276 276 276 277 277 278 278 278 278 278 279 279 280 280 281 281 282 283 283 284 284 285 285 285 285 285 285 285 285 285 285 285
277 276 276 276 275 275 275 275 276 275 276 276 275 275 276 277 277 277 276 277 277 278 278 279 279 280 280 281 281 282 282 283 284 284 284 284 285 285 285 285 285 285
277 276 276 275 275 275 274 274 275 275 275 275 275 274 275 275 276 276 276 276 276 276 276 277 278 278 279 279 279 280 280 281 282 282 283 283 283 283 284 284 284 284
277 276 276 275 275 274 274 274 274 274 274 274 274 274 274 274 274 275 275 275 275 275 275 276 276 277 277 277 278 279 279 280 280 280 281 281 281 281 282 282 282 283
277 276 276 275 275 274 274 274 274 273 273 273 273 273 273 273 273 273 274 274 274 275 275 275 275 276 276 276 277 277 278 278 278 278 278 279 279 279 280 280 281 281
277 276 276 275 275 274 274 273 273 273 273 272 273 273 273 272 272 272 272 273 273 273 274 274 274 275 275 275 276 276 276 276 276 277 277 277 277 278 278 279 279 280
277 276 276 275 274 274 274 273 273 272 272 272 272 272 272 272 271 271 271 272 272 272 273 273 273 274 274 274 274 275 274 274 275 275 276 277 277 277 277 278 278 279
277 276 276 275 274 274 274 273 273 272 272 272 272 272 272 271 270 270 270 271 271 271 272 272 272 273 273 273 273 273 273 273 274 274 275 275 276 276 276 277 277 277
277 276 276 275 274 274 273 273 272 272 272 271 271 271 271 270 270 270 270 270 270 271 271 271 271 271 272 273 273 272 273 273 273 274 274 274 275 275 275 276 276 276
277 276 275 274 274 273 273 273 272 272 271 271 271 271 270 270 269 269 269 269 270 270 270 270 270 270 271 271 271 272 272 273 273 273 273 273 274 274 274 274 275 275
277 276 275 274 273 273 273 272 272 271 271 271 271 270 270 269 269 268 269 269 269 269 269 269 269 269 269 270 270 271 272 272 272 272 272 272 273 273 273 273 273 273
276 276 275 274 273 273 272 271 271 271 271 270 270 270 269 268 268 268 268 269 269 269 269 269 269 269 269 269 269 270 270 271 270 271 271 272 272 272 272 271 271 271
276 275 275 274 273 272 271 271 271 271 270 270 270 269 269 268 268 268 268 268 269 269 269 269 269 268 268 268 268 269 269 270 270 270 270 270 271 271 270 270 270 270
275 274 274 273 272 271 271 271 271 270 270 269 269 268 268 268 267 268 268 268 268 268 268 268 268 268 268 268 268 268 269 269 269 269 269 270 270 269 269 269 269 269
274 273 273 272 271 270 270 270 270 270 269 269 268 268 268 267 267 267 267 267 268 268 268 268 268 268 268 268 268 268 268 268 269 269 269 269 269 269 268 268 268 267
273 273 272 271 270 270 270 270 270 269 269 268 267 267 267 267 267 267 267 267 267 267 267 268 267 267 267 267 267 267 267 268 268 268 268 268 268 268 268 268 267 267
272 272 271 270 270 270 270 269 269 269 268 268 267 267 267 267 267 267 267 267 267 267 267 267 267 267 267 267 267 267 267 267 267 267 267 267 267 267 268 268 267 267
271 270 270 270 269 269 269 269 268 268 268 267 267 267 267 267 267 267 267 266 266 266 266 267 267 266 266 266 267 267 267 266 266 266 266 266 266 267 267 267 267 267